This demonstration page uses our WeatherBlox Daily Observations layout. Learn more.

Left ArrowRight Arrow

Hourly Observations for March 17, 2021

Temp ( °F °C ) Dew Point ( °F °C ) Humidity (%) Winds ( mph kmh ) Pressure ( in mb ) Visibility ( mi km ) Precip ( " mm )
12:15 am 00:15 Mostly Cloudy 35 1.5 31 -0.5 87 87 N 8 13 30.02 1017 10 16 N/A
12:35 am 00:35 Mostly Cloudy 35 1.5 31 -0.3 88 88 N 9 15 30.02 1017 10 16 N/A
12:55 am 00:55 Cloudy 35 1.5 32 undefined 90 90 N 5 7 30.05 1018 10 16 N/A
1:15 am 01:15 Cloudy 35 1.6 32 undefined 89 89 N 9 15 30.04 1017 10 16 N/A
1:35 am 01:35 Partly Cloudy 34 1.2 30 -0.9 86 86 N 9 15 30.03 1017 10 16 N/A
1:55 am 01:55 Clear 33 0.8 29 -1.6 84 84 NNW 7 11 30.04 1017 10 16 N/A
2:15 am 02:15 Clear 33 0.6 29 -1.8 84 84 NNW 9 15 30.03 1017 10 16 N/A
2:35 am 02:35 Partly Cloudy 33 0.6 29 -1.5 86 86 N 13 20 30.02 1017 10 16 N/A
2:55 am 02:55 Mostly Cloudy 34 1.1 29 -1.5 83 83 NNW 13 20 30.02 1017 10 16 N/A
3:15 am 03:15 Cloudy 34 1.1 29 -1.6 82 82 N 13 20 30.03 1017 10 16 N/A
3:35 am 03:35 Cloudy 34 1 29 -1.6 83 83 N 14 22 30.03 1017 10 16 N/A
3:55 am 03:55 Cloudy 33 0.8 29 -1.5 85 85 N 12 19 30.04 1017 10 16 N/A
4:15 am 04:15 Cloudy 33 0.7 29 -1.8 84 84 N 15 24 30.04 1017 10 16 N/A
4:35 am 04:35 Cloudy 33 0.7 29 -1.5 85 85 N 13 20 30.03 1017 10 16 N/A
4:55 am 04:55 Cloudy 33 0.8 29 -1.5 85 85 N 14 22 30.03 1017 10 16 N/A
5:15 am 05:15 Cloudy 34 1 29 -1.5 84 84 N 17 28 30.02 1016 10 16 N/A
5:35 am 05:35 Cloudy 34 1 29 -1.6 83 83 N 15 24 30.02 1016 10 16 N/A
5:55 am 05:55 Cloudy 33 0.8 29 -1.5 85 85 N 14 22 30.01 1016 10 16 N/A
6:15 am 06:15 Cloudy 34 1 29 -1.5 84 84 N 15 24 30.02 1016 10 16 N/A
6:35 am 06:35 Cloudy 34 1 29 -1.6 83 83 N 14 22 30.02 1016 10 16 N/A
6:55 am 06:55 Cloudy 34 1 29 -1.7 82 82 N 17 28 30.02 1016 10 16 N/A
7:15 am 07:15 Mostly Cloudy 33 0.7 28 -2 82 82 N 12 19 30.02 1017 10 16 N/A
7:35 am 07:35 Partly Cloudy 33 0.6 29 -1.8 84 84 N 13 20 30.02 1017 10 16 N/A
7:55 am 07:55 Sunny 33 0.7 29 -1.8 84 84 N 12 19 30.04 1017 10 16 N/A
8:15 am 08:15 Sunny 33 0.6 29 -1.6 85 85 N 14 22 30.06 1018 10 16 N/A
8:35 am 08:35 Sunny 33 0.5 29 -1.5 87 87 N 14 22 30.06 1018 10 16 N/A
8:55 am 08:55 Sunny 33 0.5 29 -1.4 87 87 N 15 24 30.07 1018 10 16 N/A
9:15 am 09:15 Sunny 33 0.6 30 -1.2 88 88 N 17 28 30.07 1018 10 16 N/A
9:35 am 09:35 Partly Cloudy 33 0.7 30 -1.1 88 88 N 16 26 30.07 1018 10 16 N/A
9:55 am 09:55 Partly Cloudy 34 1 30 -1 87 87 N 15 24 30.07 1018 10 16 N/A
10:15 am 10:15 Partly Cloudy 34 1.2 30 -0.9 86 86 N 16 26 30.06 1018 10 16 N/A
10:35 am 10:35 Partly Cloudy 35 1.5 30 -0.9 84 84 N 21 33 30.07 1018 10 16 N/A
10:55 am 10:55 Mostly Cloudy 35 1.7 31 -0.6 85 85 N 20 31 30.08 1019 10 16 N/A
11:15 am 11:15 Cloudy 36 2.1 31 -0.6 83 83 N 18 30 30.08 1019 10 16 N/A
11:35 am 11:35 Cloudy 37 2.5 31 -0.7 80 80 N 24 39 30.09 1019 10 16 N/A
11:55 am 11:55 Cloudy 38 3.3 31 -0.3 78 78 N 21 33 30.08 1019 10 16 N/A
12:15 pm 12:15 Cloudy 37 2.9 31 -0.5 79 79 N 17 28 30.09 1019 10 16 N/A
12:35 pm 12:35 Cloudy 38 3.1 31 -0.5 77 77 N 24 39 30.09 1019 10 16 N/A
12:55 pm 12:55 Cloudy 38 3.2 31 -0.4 78 78 N 20 31 30.09 1019 10 16 N/A
1:15 pm 13:15 Cloudy 38 3.2 31 -0.5 77 77 N 18 30 30.08 1019 10 16 N/A
1:35 pm 13:35 Cloudy 38 3.6 31 -0.4 75 75 N 21 33 30.08 1019 10 16 N/A
1:55 pm 13:55 Cloudy 39 4 31 -0.3 74 74 N 23 37 30.08 1019 10 16 N/A
2:15 pm 14:15 Cloudy 39 4 31 -0.5 73 73 NNE 22 35 30.08 1019 10 16 N/A
2:35 pm 14:35 Cloudy 38 3.5 31 -0.5 75 75 N 22 35 30.08 1019 10 16 N/A
2:55 pm 14:55 Cloudy 39 3.7 32 -0.2 76 76 N 20 31 30.09 1019 10 16 N/A
3:15 pm 15:15 Cloudy 39 4.1 32 -0.2 74 74 N 18 30 30.09 1019 10 16 N/A
3:35 pm 15:35 Cloudy 40 4.4 32 undefined 73 73 N 23 37 30.08 1019 10 16 N/A
3:55 pm 15:55 Cloudy 39 4.1 31 -0.3 73 73 N 20 31 30.09 1019 10 16 N/A
4:15 pm 16:15 Cloudy 40 4.2 32 undefined 74 74 N 18 30 30.09 1019 10 16 N/A
4:35 pm 16:35 Cloudy 39 4.1 32 -0.1 74 74 N 21 33 30.09 1019 10 16 N/A
4:55 pm 16:55 Cloudy 40 4.5 32 undefined 73 73 N 24 39 30.07 1018 10 16 N/A
5:15 pm 17:15 Mostly Cloudy 40 4.5 32 undefined 73 73 N 18 30 30.07 1018 10 16 N/A
5:35 pm 17:35 Mostly Cloudy 40 4.3 32 -0.2 73 73 N 22 35 30.07 1018 10 16 N/A
5:55 pm 17:55 Cloudy 39 4 31 -0.8 71 71 N 23 37 30.08 1019 10 16 N/A
6:15 pm 18:15 Cloudy 39 4 31 -0.5 73 73 N 17 28 30.08 1019 10 16 N/A
6:35 pm 18:35 Cloudy 39 3.7 31 -0.5 74 74 N 25 41 30.08 1019 10 16 N/A
6:55 pm 18:55 Cloudy 38 3.4 31 -0.7 75 75 N 23 37 30.10 1019 10 16 N/A
7:15 pm 19:15 Cloudy 38 3.2 31 -0.7 76 76 N 13 20 30.11 1020 10 16 N/A
7:35 pm 19:35 Cloudy 37 3 30 -1 75 75 N 22 35 30.13 1020 10 16 N/A
7:55 pm 19:55 Mostly Cloudy 37 2.6 30 -1.1 77 77 N 16 26 30.14 1021 10 16 N/A
8:15 pm 20:15 Cloudy 37 2.6 30 -1 77 77 N 15 24 30.14 1021 10 16 N/A
8:35 pm 20:35 Cloudy 37 2.6 31 -0.7 79 79 N 17 28 30.14 1021 10 16 N/A
8:55 pm 20:55 Cloudy 37 2.5 31 -0.7 80 80 N 14 22 30.15 1021 10 16 N/A
9:15 pm 21:15 Cloudy 36 2.3 31 -0.8 80 80 N 13 20 30.16 1021 10 16 N/A
9:35 pm 21:35 Mostly Cloudy 36 2 30 -1 81 81 N 13 20 30.17 1022 10 16 N/A
9:55 pm 21:55 Mostly Cloudy 35 1.8 31 -0.6 84 84 N 13 20 30.18 1022 10 16 N/A
10:15 pm 22:15 Cloudy 35 1.9 31 -0.5 84 84 N 14 22 30.19 1022 10 16 N/A
10:35 pm 22:35 Cloudy 35 1.8 31 -0.6 84 84 N 14 22 30.20 1023 10 16 N/A
10:55 pm 22:55 Cloudy 35 1.8 31 -0.5 85 85 N 12 19 30.20 1023 10 16 N/A
11:15 pm 23:15 Cloudy 35 1.8 31 -0.5 85 85 N 14 22 30.21 1023 10 16 N/A
11:35 pm 23:35 Cloudy 35 1.6 31 -0.5 86 86 N 17 28 30.22 1023 10 16 N/A
11:55 pm 23:55 Cloudy 35 1.6 31 -0.5 86 86 N 16 26 30.22 1023 10 16 N/A

Powered by AerisWeather